Weather History for Fort Morgan, CO

Change the Weather History Date:

Saturday, April 5, 2014

  Actual Average (KAKO) Record (KAKO)
Temperature  
Mean Temperature 46 °F 44 °F  
Max Temperature 62 °F 57 °F 80 °F (1991)
Min Temperature 31 °F 30 °F 11 °F (1983)
Degree Days  
Heating Degree Days 18    
Month to date heating degree days  
Cooling Degree Days 0    
Month to date cooling degree days  
Moisture  
Dew Point 26 °F    
Average Humidity 50    
Maximum Humidity 91    
Minimum Humidity 17    
Precipitation  
Precipitation 0.00 in 0.04 in 0.34 in (1999)
Month to date precipitation 0.19  
Year to date precipitation 1.80  
Sea Level Pressure  
Sea Level Pressure 29.88 in    
Wind  
Wind Speed 5 mph (NW)    
Max Wind Speed 13 mph    
Max Gust Speed 25 mph    
Visibility 10 miles    
Events      
T = Trace of Precipitation, MM = Missing Value Source: NWS Daily Summary

Daily Weather History Graph

Daily Weather History Graph

Search for Another Location

Airport:

Trip Planner

Search our weather history database for the weather conditions in past years. The results will help you decide how hot, cold, wet, or windy it might be!

Date:

Astronomy

Apr. 05, 2014 Rise Set
Actual Time 6:32 AM MDT 7:23 PM MDT
Civil Twilight 6:04 AM MDT 7:51 PM MDT
Nautical Twilight 5:32 AM MDT 8:24 PM MDT
Astronomical Twilight 4:58 AM MDT 8:58 PM MDT
Moon 10:41 AM MDT (4/5) 12:36 AM MDT (4/5)
Length of Visible Light 13h 46m
Length of Day
12h 51m
Waxing Crescent, 35% of the Moon is Illuminated
Apr 5
Waxing Crescent
Apr 7
First Quarter
Apr 15
Full
Apr 22
Last Quarter
Apr 29
New

Hourly Weather History & Observations

Time (MDT) Temp. Windchill Dew Point Humidity Pressure Visibility Wind Dir Wind Speed Gust Speed Precip Events Conditions
12:15 AM 40.8 °F 37.8 °F 27.5 °F 59% 29.92 in 10.0 mi SSE 4.6 mph - N/A   Mostly Cloudy
12:35 AM 38.3 °F - 28.4 °F 68% 29.92 in 10.0 mi Calm Calm - N/A   Mostly Cloudy
12:55 AM 38.5 °F 36.1 °F 28.0 °F 66% 29.92 in 10.0 mi ENE 3.5 mph - N/A   Scattered Clouds
1:15 AM 39.2 °F - 28.2 °F 65% 29.92 in 10.0 mi Calm Calm - N/A   Scattered Clouds
1:35 AM 39.7 °F 37.6 °F 28.8 °F 65% 29.91 in 10.0 mi South 3.5 mph - N/A   Scattered Clouds
1:55 AM 39.2 °F - 29.3 °F 68% 29.91 in 10.0 mi Calm Calm - N/A   Scattered Clouds
2:15 AM 39.6 °F - 28.9 °F 66% 29.90 in 10.0 mi Calm Calm - N/A   Scattered Clouds
2:35 AM 39.7 °F 36.5 °F 28.9 °F 65% 29.89 in 10.0 mi SSW 4.6 mph - N/A   Scattered Clouds
2:55 AM 38.8 °F 35.4 °F 29.7 °F 70% 29.89 in 10.0 mi SW 4.6 mph - N/A   Mostly Cloudy
3:15 AM 36.7 °F 34.1 °F 29.8 °F 76% 29.89 in 10.0 mi West 3.5 mph - N/A   Mostly Cloudy
3:35 AM 37.9 °F 34.4 °F 30.2 °F 74% 29.89 in 10.0 mi WSW 4.6 mph - N/A   Scattered Clouds
3:55 AM 36.7 °F - 30.6 °F 78% 29.88 in 10.0 mi Calm Calm - N/A   Scattered Clouds
4:15 AM 35.6 °F 30.7 °F 30.0 °F 80% 29.88 in 10.0 mi WSW 5.8 mph - N/A   Scattered Clouds
4:35 AM 32.9 °F 25.9 °F 29.8 °F 88% 29.88 in 10.0 mi West 8.1 mph - N/A   Clear
4:55 AM 33.4 °F 25.4 °F 30.7 °F 90% 29.87 in 10.0 mi WNW 10.4 mph - N/A   Clear
5:15 AM 33.3 °F 25.7 °F 30.6 °F 90% 29.87 in 10.0 mi WNW 9.2 mph - N/A   Clear
5:35 AM 33.1 °F - 30.4 °F 90% 29.88 in 10.0 mi North - - N/A   Clear
5:55 AM 34.3 °F 27.0 °F 30.7 °F 87% 29.88 in 10.0 mi West 9.2 mph - N/A   Clear
6:15 AM 32.9 °F 26.7 °F 29.8 °F 88% 29.88 in 10.0 mi WNW 6.9 mph - N/A   Clear
6:35 AM 32.4 °F 26.0 °F 29.3 °F 88% 29.89 in 10.0 mi WSW 6.9 mph - N/A   Clear
6:55 AM 31.6 °F 25.1 °F 29.3 °F 91% 29.89 in 10.0 mi WNW 6.9 mph - N/A   Clear
7:15 AM 34.5 °F 27.9 °F 31.6 °F 89% 29.90 in 10.0 mi WNW 8.1 mph - N/A   Clear
7:35 AM 39.6 °F 34.7 °F 32.7 °F 76% 29.91 in 10.0 mi West 6.9 mph - N/A   Scattered Clouds
7:55 AM 37.4 °F 32.8 °F 33.1 °F 84% 29.91 in 10.0 mi West 5.8 mph - N/A   Scattered Clouds
8:15 AM 40.6 °F 36.0 °F 34.0 °F 77% 29.91 in 10.0 mi West 6.9 mph - N/A   Clear
8:35 AM 43.2 °F 40.5 °F 32.4 °F 66% 29.91 in 10.0 mi WNW 4.6 mph - N/A   Clear
8:55 AM 45.7 °F 43.4 °F 31.5 °F 58% 29.91 in 10.0 mi West 4.6 mph - N/A   Clear
9:15 AM 47.3 °F - 31.3 °F 54% 29.91 in 10.0 mi West 5.8 mph - N/A   Clear
9:35 AM 50.0 °F - 29.5 °F 45% 29.91 in 10.0 mi WSW 4.6 mph - N/A   Scattered Clouds
9:55 AM 50.9 °F - 28.8 °F 43% 29.91 in 10.0 mi WNW 4.6 mph - N/A   Clear
10:15 AM 52.3 °F - 25.2 °F 35% 29.91 in 10.0 mi NW 4.6 mph - N/A   Clear
10:35 AM 54.0 °F - 27.0 °F 35% 29.91 in 10.0 mi WNW 6.9 mph - N/A   Clear
10:55 AM 55.0 °F - 27.0 °F 34% 29.89 in 10.0 mi NW 5.8 mph - N/A   Clear
11:15 AM 56.3 °F - 23.5 °F 28% 29.89 in 10.0 mi NW 6.9 mph - N/A   Clear
11:35 AM 58.1 °F - 23.4 °F 26% 29.89 in 10.0 mi NNW 10.4 mph - N/A   Clear
11:55 AM 57.9 °F - 19.6 °F 23% 29.88 in 10.0 mi Calm Calm - N/A   Clear
12:15 PM 58.5 °F - 18.9 °F 21% 29.88 in 10.0 mi WNW 5.8 mph - N/A   Clear
12:35 PM 58.8 °F - 19.2 °F 22% 29.87 in 10.0 mi WNW 3.5 mph - N/A   Clear
12:55 PM 58.6 °F - 18.7 °F 21% 29.87 in 10.0 mi NNE 3.5 mph - N/A   Clear
1:15 PM 59.7 °F - 18.9 °F 21% 29.87 in 10.0 mi Calm Calm - N/A   Scattered Clouds
1:35 PM 60.4 °F - 19.0 °F 20% 29.85 in 10.0 mi South 5.8 mph - N/A   Mostly Cloudy
1:55 PM 61.2 °F - 18.5 °F 19% 29.85 in 10.0 mi South 3.5 mph - N/A   Mostly Cloudy
2:15 PM 61.7 °F - 19.6 °F 20% 29.84 in 10.0 mi NW 3.5 mph - N/A   Scattered Clouds
2:35 PM 62.1 °F - 19.4 °F 19% 29.83 in 10.0 mi ENE 4.6 mph - N/A   Scattered Clouds
2:55 PM 61.2 °F - 18.7 °F 19% 29.83 in 10.0 mi Calm Calm - N/A   Scattered Clouds
3:15 PM 61.9 °F - 18.1 °F 18% 29.82 in 10.0 mi East 4.6 mph - N/A   Scattered Clouds
3:35 PM 62.1 °F - 18.5 °F 19% 29.82 in 10.0 mi Calm Calm - N/A   Overcast
3:55 PM 61.9 °F - 18.1 °F 18% 29.82 in 10.0 mi Calm Calm - N/A   Mostly Cloudy
4:15 PM 58.5 °F - 16.2 °F 19% 29.82 in 10.0 mi Calm Calm - N/A   Overcast
4:35 PM 60.3 °F - 16.2 °F 18% 29.81 in 10.0 mi South 3.5 mph - N/A   Overcast
4:55 PM 61.7 °F - 16.5 °F 17% 29.82 in 10.0 mi ESE 5.8 mph - N/A   Mostly Cloudy
5:15 PM 59.4 °F - 17.2 °F 19% 29.82 in 10.0 mi NNE 6.9 mph - N/A   Mostly Cloudy
5:35 PM 58.3 °F - 16.3 °F 19% 29.82 in 10.0 mi Calm Calm - N/A   Mostly Cloudy
5:55 PM 57.4 °F - 19.4 °F 23% 29.82 in 10.0 mi NNE 4.6 mph - N/A   Overcast
6:15 PM 56.1 °F - 23.4 °F 28% 29.83 in 10.0 mi NNE 3.5 mph - N/A   Scattered Clouds
6:35 PM 54.3 °F - 23.5 °F 30% 29.83 in 10.0 mi North 5.8 mph - N/A   Mostly Cloudy
6:55 PM 54.1 °F - 25.5 °F 33% 29.84 in 10.0 mi North 8.1 mph - N/A   Mostly Cloudy
7:15 PM 51.8 °F - 26.2 °F 37% 29.84 in 10.0 mi North 12.7 mph - N/A   Mostly Cloudy
7:35 PM 49.1 °F - 26.4 °F 41% 29.84 in 10.0 mi North 11.5 mph - N/A   Scattered Clouds
7:55 PM 45.9 °F 40.4 °F 27.1 °F 48% 29.84 in 10.0 mi NNW 11.5 mph 25.3 mph N/A   Clear
8:15 PM 44.8 °F 39.4 °F 27.7 °F 51% 29.85 in 10.0 mi North 10.4 mph - N/A   Clear
8:35 PM 45.5 °F 39.9 °F 27.5 °F 49% 29.86 in 10.0 mi North 11.5 mph - N/A   Clear
8:55 PM 45.5 °F 40.8 °F 28.6 °F 52% 29.88 in 10.0 mi North 9.2 mph - N/A   Clear
9:15 PM 45.0 °F 40.6 °F 29.3 °F 54% 29.89 in 10.0 mi NNW 8.1 mph - N/A   Scattered Clouds
9:35 PM 44.2 °F 38.8 °F 29.3 °F 56% 29.89 in 10.0 mi NNW 10.4 mph - N/A   Mostly Cloudy
9:55 PM 44.8 °F 41.6 °F 29.3 °F 55% 29.91 in 10.0 mi NE 5.8 mph - N/A   Overcast
10:15 PM 44.1 °F 40.1 °F 29.7 °F 57% 29.91 in 10.0 mi NNE 6.9 mph - N/A   Overcast
10:35 PM 43.2 °F 39.7 °F 29.3 °F 58% 29.90 in 10.0 mi North 5.8 mph - N/A   Overcast
10:55 PM 41.9 °F 36.3 °F 28.4 °F 59% 29.89 in 10.0 mi NNW 9.2 mph - N/A   Mostly Cloudy
11:15 PM 41.0 °F 35.8 °F 27.5 °F 59% 29.89 in 10.0 mi NNW 8.1 mph - N/A   Clear
11:35 PM 39.6 °F 35.4 °F 28.6 °F 65% 29.90 in 10.0 mi West 5.8 mph - N/A   Clear
11:55 PM 40.1 °F 33.2 °F 29.3 °F 65% 29.90 in 10.0 mi WNW 11.5 mph - N/A   Clear